星链-11263 (STARLINK-11263)

导读 | 豆包AI

STARLINK-11263是美国太空探索技术公司(SpaceX)星链(Starlink)星座中的一颗卫星,于2024年8月28日发射升空。星链项目旨在构建全球卫星互联网星座,为全球用户提供低延迟、高速率的宽带互联网服务,这颗卫星入轨后将进一步扩充星链星座的在轨服务规模。

Basic Information
目录编号:
60725
目录名称:
STARLINK-11263
国际标识:
2024-152F
轨道中心:
EARTH
卫星名称:
星链-11263 (STARLINK-11263)
卫星全名:
星链-11263 (STARLINK-11263)
卫星状态:
在轨 (已飞行635 天)
发射日期:
2024-08-28 UTC
国别 :
美国 (US)
星等 :
--
Orbit Information
数据来源 国际轨道数据
星历时间: 2026-05-24T11:09:37+0800
1天前
查看轨道信息
半长轴: 6737.858km
偏心率: 0.0001371
轨道倾角: 53.160°
近地点辐角 106.384°
升交点赤经 104.389°
平近点角 253.733°
近地点: 358.797km
远地点: 360.645km
周期: 91.737分钟
每日圈数: 15.697123
Detailed Information
卫星平台:
Starlink v2.0 mini
运营商:
太空探索技术公司
运营商所在国:
美国
制造商(研发单位):
太空探索技术公司
制造商所在国:
美国
使用方式:
暂无
Satellite Introduction
星链(Starlink)计划是由太空探索技术公司(SpaceX)提出的一个巨型低轨卫星互联网星座项目,计划在2019年至2024年间在太空搭建由约1.2万颗卫星组成的“星链”网络,其中1584颗将部署在地球上空550千米处的近地轨道,并从2020年开始工作。该卫星仍在工作。
2D Orbit Map
3D Orbit Map
Orbit Altitude Analysis Chart
Orbit Inclination Analysis Chart
Orbit Comprehensive Analysis Chart
View Comprehensive Chart